"Pseudo-MPEC" for A115LYN

Created 2024 Apr 30 12:22:02 UT using Find_Orb

Click here for an explanation of pseudo-MPECs

 
 Astrometry: 
     A115LYN* C2024 04 104r6lAstrometryXMReDDo9O!]./'hLS[BTy%kCSXredacted;*hQT05
     A115LYN  C2024 04 10@4/GgNkclickex^:SBHb#6h0L0eKj0IChereiSetforMT]tuf?`dT05
     A115LYN  C2024 04 10#=yZVlHg3,DWmT_explanation@3'NK!I7t/UQcL+e,a1/(PvhNST05

Station data:
(T05) ATLAS-HKO, Haleakala  (N20.707551 W156.257010)  US/Hawaii.  Observers
   L. Denneau, A. Heinze, H. Weiland, J. Tonry, H. Flewelling, A.
   Fitzsimmons, D. Young, B. Stalder. Measurers L. Denneau, A. Heinze, J.
   Tonry. 0.5-m f/2.0 Schmidt + CCD.

Orbital elements:  A115LYN
   Perihelion 2024 Jan 17.93429 +/- 87.1 TT = 22:25:22 (JD 2460327.43429)
Epoch 2024 Apr 10.0 TT = JDT 2460410.5   Earth MOID: 0.0666   Me: 0.0834
M 116.91178823 +/- 100              (J2000 ecliptic)             AutoNEOCP
n   1.40746142 +/- 0.771            Peri.  217.94405 +/- 60
a   0.78857871 +/- 0.288            Node   194.26826 +/- 100
e   0.7032648 +/- 0.205             Incl.   47.01168 +/- 49
P   0.70/255.77d           H 18.50  G  0.15   U 12.6  SR
q 0.23399905 +/- 0.402    Q 1.34315836 +/- 11.3
From 3 observations 2024 Apr. 10 (53.2 min); mean residual 0".30
Residuals in arcseconds: 
240410 T05  .36+  .08+    240410 T05  .58-  .13-    240410 T05  .22+  .05+    

Ephemerides (geocentric):
Date (UTC) HH   RA             Dec           delta  r     elong  mag " sig PA
---- --------  ------------   ------------  ------ ------ -----  --- --------
2024 04 30 12  15 03 57.991   +51 13 55.63  .52549 1.3088 113.5 19.4  43d 126
2024 04 30 13  15 03 42.455   +51 15 00.70  .52583 1.3089 113.5 19.4  43d 126
2024 04 30 14  15 03 26.924   +51 16 05.46  .52618 1.3090 113.4 19.4  43d 126
2024 04 30 15  15 03 11.401   +51 17 09.91  .52652 1.3092 113.4 19.4  43d 126
2024 04 30 16  15 02 55.883   +51 18 14.04  .52687 1.3093 113.4 19.4  43d 126
2024 04 30 17  15 02 40.373   +51 19 17.87  .52721 1.3094 113.4 19.4  43d 126
2024 04 30 18  15 02 24.869   +51 20 21.39  .52756 1.3095 113.4 19.4  43d 126
2024 04 30 19  15 02 09.372   +51 21 24.60  .52790 1.3096 113.3 19.4  43d 126
2024 04 30 20  15 01 53.882   +51 22 27.51  .52825 1.3097 113.3 19.4  43d 126
2024 04 30 21  15 01 38.399   +51 23 30.10  .52859 1.3099 113.3 19.4  43d 126
2024 04 30 22  15 01 22.923   +51 24 32.39  .52894 1.3100 113.3 19.4  43d 126
2024 04 30 23  15 01 07.455   +51 25 34.38  .52929 1.3101 113.3 19.4  43d 126
2024 05 01 00  15 00 51.993   +51 26 36.05  .52963 1.3102 113.2 19.4  43d 127
2024 05 01 01  15 00 36.539   +51 27 37.43  .52998 1.3103 113.2 19.4  43d 127
2024 05 01 02  15 00 21.091   +51 28 38.49  .53033 1.3104 113.2 19.4  43d 127
2024 05 01 03  15 00 05.652   +51 29 39.26  .53068 1.3105 113.2 19.4  43d 127
2024 05 01 04  14 59 50.220   +51 30 39.72  .53102 1.3107 113.1 19.4  43d 127
2024 05 01 05  14 59 34.795   +51 31 39.87  .53137 1.3108 113.1 19.4  43d 127
2024 05 01 06  14 59 19.378   +51 32 39.73  .53172 1.3109 113.1 19.4  43d 127
2024 05 01 07  14 59 03.968   +51 33 39.28  .53207 1.3110 113.1 19.4  43d 127
2024 05 01 08  14 58 48.566   +51 34 38.53  .53242 1.3111 113.1 19.4  43d 127
2024 05 01 09  14 58 33.173   +51 35 37.48  .53277 1.3112 113.0 19.4  43d 127
2024 05 01 10  14 58 17.787   +51 36 36.13  .53312 1.3114 113.0 19.4  43d 127
2024 05 01 11  14 58 02.408   +51 37 34.47  .53347 1.3115 113.0 19.4  43d 127
2024 05 01 12  14 57 47.038   +51 38 32.52  .53382 1.3116 113.0 19.4  43d 127
2024 05 01 13  14 57 31.676   +51 39 30.27  .53417 1.3117 112.9 19.4  43d 127
2024 05 01 14  14 57 16.323   +51 40 27.72  .53452 1.3118 112.9 19.4  43d 127
2024 05 01 15  14 57 00.977   +51 41 24.88  .53487 1.3119 112.9 19.5  43d 127
2024 05 01 16  14 56 45.640   +51 42 21.73  .53522 1.3120 112.9 19.5  43d 127
2024 05 01 17  14 56 30.311   +51 43 18.29  .53557 1.3121 112.9 19.5  43d 127
2024 05 01 18  14 56 14.990   +51 44 14.56  .53593 1.3123 112.8 19.5  43d 127
2024 05 01 19  14 55 59.678   +51 45 10.52  .53628 1.3124 112.8 19.5  43d 127
2024 05 01 20  14 55 44.374   +51 46 06.20  .53663 1.3125 112.8 19.5  43d 127
2024 05 01 21  14 55 29.079   +51 47 01.57  .53698 1.3126 112.8 19.5  43d 127
2024 05 01 22  14 55 13.793   +51 47 56.66  .53734 1.3127 112.8 19.5  43d 127
2024 05 01 23  14 54 58.516   +51 48 51.45  .53769 1.3128 112.7 19.5  43d 127
2024 05 02 00  14 54 43.247   +51 49 45.94  .53805 1.3129 112.7 19.5  43d 127
2024 05 02 01  14 54 27.987   +51 50 40.15  .53840 1.3130 112.7 19.5  43d 127
2024 05 02 02  14 54 12.737   +51 51 34.06  .53875 1.3131 112.7 19.5  43d 127
2024 05 02 03  14 53 57.495   +51 52 27.68  .53911 1.3133 112.6 19.5  43d 127
2024 05 02 04  14 53 42.262   +51 53 21.01  .53946 1.3134 112.6 19.5  43d 127
2024 05 02 05  14 53 27.039   +51 54 14.05  .53982 1.3135 112.6 19.5  43d 127
2024 05 02 06  14 53 11.824   +51 55 06.80  .54017 1.3136 112.6 19.5  42d 127
2024 05 02 07  14 52 56.619   +51 55 59.26  .54053 1.3137 112.5 19.5  42d 127
2024 05 02 08  14 52 41.423   +51 56 51.43  .54089 1.3138 112.5 19.5  42d 127
2024 05 02 09  14 52 26.237   +51 57 43.31  .54124 1.3139 112.5 19.5  42d 127
2024 05 02 10  14 52 11.060   +51 58 34.91  .54160 1.3140 112.5 19.5  42d 127
2024 05 02 11  14 51 55.893   +51 59 26.21  .54196 1.3141 112.5 19.5  42d 127